Time,TemperatureF,DewpointF,PressureIn,WindDirection,WindDirectionDegrees,WindSpeedMPH,WindSpeedGustMPH,Humidity,HourlyPrecipIn,Conditions,Clouds,dailyrainin,SoftwareType,DateUTC
2013-04-15 00:02:00,59.0,49.0,29.71,South,187,14.0,22.0,70,0.00,,,0.00,,2013-04-15 05:02:00,
2013-04-15 00:12:00,59.0,49.0,29.71,South,187,14.0,22.0,70,0.00,,,0.00,,2013-04-15 05:12:00,
2013-04-15 00:23:00,58.0,48.0,29.72,SSE,165,16.0,25.0,70,0.00,,,0.00,,2013-04-15 05:23:00,
2013-04-15 00:33:00,57.0,48.0,29.74,SSE,161,11.0,23.0,71,0.00,,,0.00,,2013-04-15 05:33:00,
2013-04-15 00:42:00,57.0,48.0,29.74,SSE,161,11.0,23.0,71,0.00,,,0.00,,2013-04-15 05:42:00,
2013-04-15 00:52:00,57.0,48.0,29.75,South,179,12.0,21.0,73,0.00,,,0.00,,2013-04-15 05:52:00,
2013-04-15 01:02:00,57.0,49.0,29.76,South,184,13.0,20.0,74,0.00,,,0.00,,2013-04-15 06:02:00,
2013-04-15 01:12:00,57.0,49.0,29.76,South,184,13.0,20.0,74,0.00,,,0.00,,2013-04-15 06:12:00,
2013-04-15 01:22:00,56.0,49.0,29.77,SSE,161,11.0,18.0,76,0.00,,,0.00,,2013-04-15 06:22:00,
2013-04-15 01:33:00,56.0,49.0,29.76,SSE,155,12.0,19.0,77,0.00,,,0.00,,2013-04-15 06:33:00,
2013-04-15 01:42:00,56.0,49.0,29.76,SSE,155,12.0,19.0,77,0.00,,,0.00,,2013-04-15 06:42:00,
2013-04-15 01:52:00,56.0,49.0,29.77,South,177,13.0,19.0,77,0.00,,,0.00,,2013-04-15 06:52:00,
2013-04-15 02:02:00,56.0,49.0,29.78,South,181,11.0,20.0,78,0.00,,,0.00,,2013-04-15 07:02:00,
2013-04-15 02:41:00,56.0,50.0,29.78,SSE,151,12.0,16.0,79,0.00,,,0.00,,2013-04-15 07:41:00,
2013-04-15 02:42:00,56.0,50.0,29.79,South,174,10.0,17.0,80,0.00,,,0.00,,2013-04-15 07:42:00,
2013-04-15 02:52:00,55.0,50.0,29.79,South,175,9.0,17.0,84,0.01,,,0.01,,2013-04-15 07:52:00,
2013-04-15 03:02:00,54.0,50.0,29.77,SSE,153,9.0,14.0,85,0.01,,,0.01,,2013-04-15 08:02:00,
2013-04-15 03:13:00,54.0,50.0,29.77,SSE,153,9.0,14.0,85,0.01,,,0.01,,2013-04-15 08:13:00,
2013-04-15 03:22:00,54.0,50.0,29.76,South,175,9.0,16.0,87,0.02,,,0.02,,2013-04-15 08:22:00,
2013-04-15 03:33:00,54.0,50.0,29.76,SSE,163,8.0,13.0,87,0.02,,,0.02,,2013-04-15 08:33:00,
2013-04-15 03:42:00,54.0,50.0,29.76,SSE,163,8.0,13.0,87,0.02,,,0.02,,2013-04-15 08:42:00,
2013-04-15 03:52:00,53.0,49.0,29.76,SSE,155,10.0,15.0,87,0.01,,,0.02,,2013-04-15 08:52:00,
2013-04-15 04:03:00,53.0,49.0,29.77,South,189,8.0,14.0,87,0.01,,,0.02,,2013-04-15 09:03:00,
2013-04-15 04:12:00,53.0,49.0,29.77,South,189,8.0,14.0,87,0.01,,,0.02,,2013-04-15 09:12:00,
2013-04-15 04:23:00,53.0,49.0,29.77,SSE,161,8.0,14.0,87,0.00,,,0.02,,2013-04-15 09:23:00,
2013-04-15 04:32:00,54.0,50.0,29.77,SSE,167,9.0,16.0,87,0.00,,,0.02,,2013-04-15 09:32:00,
2013-04-15 04:42:00,54.0,50.0,29.77,SSE,167,9.0,16.0,87,0.00,,,0.02,,2013-04-15 09:42:00,
2013-04-15 04:53:00,54.0,50.0,29.77,South,186,9.0,16.0,87,0.00,,,0.02,,2013-04-15 09:53:00,
2013-04-15 05:02:00,53.0,50.0,29.76,SSE,167,8.0,12.0,88,0.00,,,0.02,,2013-04-15 10:02:00,
2013-04-15 05:13:00,53.0,50.0,29.76,SSE,167,8.0,12.0,88,0.00,,,0.02,,2013-04-15 10:13:00,
2013-04-15 05:23:00,53.0,50.0,29.77,South,178,9.0,16.0,88,0.00,,,0.02,,2013-04-15 10:23:00,
2013-04-15 05:33:00,53.0,50.0,29.78,SSE,165,9.0,13.0,88,0.00,,,0.02,,2013-04-15 10:33:00,
2013-04-15 05:42:00,53.0,50.0,29.78,SSE,165,9.0,13.0,88,0.00,,,0.02,,2013-04-15 10:42:00,
2013-04-15 05:52:00,53.0,50.0,29.79,South,170,7.0,14.0,88,0.00,,,0.02,,2013-04-15 10:52:00,
2013-04-15 06:03:00,53.0,50.0,29.79,South,177,7.0,12.0,89,0.00,,,0.02,,2013-04-15 11:03:00,
2013-04-15 06:12:00,53.0,50.0,29.79,South,177,7.0,12.0,89,0.00,,,0.02,,2013-04-15 11:12:00,
2013-04-15 06:22:00,53.0,50.0,29.79,South,177,5.0,12.0,89,0.00,,,0.02,,2013-04-15 11:22:00,
2013-04-15 06:32:00,53.0,50.0,29.80,South,190,9.0,14.0,89,0.00,,,0.02,,2013-04-15 11:32:00,
2013-04-15 06:43:00,53.0,50.0,29.80,South,190,9.0,14.0,89,0.00,,,0.02,,2013-04-15 11:43:00,
2013-04-15 06:53:00,53.0,50.0,29.80,SSW,208,8.0,12.0,90,0.00,,,0.02,,2013-04-15 11:53:00,
2013-04-15 07:04:00,53.0,50.0,29.81,South,184,8.0,13.0,90,0.00,,,0.02,,2013-04-15 12:04:00,
2013-04-15 07:14:00,53.0,50.0,29.81,South,184,8.0,13.0,90,0.00,,,0.02,,2013-04-15 12:14:00,
2013-04-15 07:23:00,53.0,50.0,29.81,South,169,7.0,13.0,90,0.00,,,0.02,,2013-04-15 12:23:00,
2013-04-15 07:33:00,53.0,50.0,29.82,South,184,7.0,16.0,90,0.00,,,0.02,,2013-04-15 12:33:00,
2013-04-15 07:43:00,53.0,50.0,29.82,South,184,7.0,16.0,90,0.00,,,0.02,,2013-04-15 12:43:00,
2013-04-15 07:53:00,53.0,50.0,29.83,South,187,7.0,15.0,90,0.00,,,0.02,,2013-04-15 12:53:00,
2013-04-15 08:04:00,54.0,51.0,29.83,SSW,192,7.0,12.0,90,0.00,,,0.02,,2013-04-15 13:04:00,
2013-04-15 08:12:00,54.0,51.0,29.83,SSW,192,7.0,12.0,90,0.00,,,0.02,,2013-04-15 13:12:00,
2013-04-15 08:23:00,54.0,51.0,29.83,South,185,7.0,13.0,90,0.00,,,0.02,,2013-04-15 13:23:00,
2013-04-15 08:33:00,54.0,51.0,29.83,South,184,7.0,11.0,90,0.00,,,0.02,,2013-04-15 13:33:00,
2013-04-15 08:43:00,54.0,51.0,29.83,South,184,7.0,11.0,90,0.00,,,0.02,,2013-04-15 13:43:00,
2013-04-15 08:53:00,54.0,51.0,29.83,South,190,7.0,14.0,90,0.00,,,0.02,,2013-04-15 13:53:00,
2013-04-15 09:05:00,55.0,52.0,29.83,South,182,6.0,11.0,90,0.00,,,0.02,,2013-04-15 14:05:00,
2013-04-15 09:13:00,55.0,52.0,29.83,South,182,6.0,11.0,90,0.00,,,0.02,,2013-04-15 14:13:00,
2013-04-15 09:22:00,55.0,52.0,29.83,South,188,7.0,10.0,90,0.00,,,0.02,,2013-04-15 14:22:00,
2013-04-15 09:33:00,55.0,52.0,29.83,SSW,197,7.0,15.0,90,0.00,,,0.02,,2013-04-15 14:33:00,
2013-04-15 09:44:00,55.0,52.0,29.83,SSW,197,7.0,15.0,90,0.00,,,0.02,,2013-04-15 14:44:00,
2013-04-15 09:53:00,56.0,53.0,29.84,SSW,196,8.0,14.0,89,0.00,,,0.02,,2013-04-15 14:53:00,
2013-04-15 10:03:00,56.0,53.0,29.83,South,190,7.0,15.0,90,0.00,,,0.02,,2013-04-15 15:03:00,
2013-04-15 10:13:00,56.0,53.0,29.83,South,190,7.0,15.0,90,0.00,,,0.02,,2013-04-15 15:13:00,
2013-04-15 10:23:00,56.0,53.0,29.84,SSW,198,8.0,14.0,91,0.00,,,0.02,,2013-04-15 15:23:00,
2013-04-15 10:35:00,56.0,53.0,29.84,SSW,198,9.0,15.0,91,0.00,,,0.02,,2013-04-15 15:35:00,
2013-04-15 10:44:00,56.0,53.0,29.84,SSW,198,9.0,15.0,91,0.00,,,0.02,,2013-04-15 15:44:00,
2013-04-15 10:53:00,56.0,53.0,29.84,SSW,207,9.0,14.0,91,0.00,,,0.02,,2013-04-15 15:53:00,
2013-04-15 11:04:00,57.0,54.0,29.85,SSW,194,11.0,16.0,91,0.00,,,0.02,,2013-04-15 16:04:00,
2013-04-15 11:13:00,57.0,54.0,29.85,SSW,194,11.0,16.0,91,0.00,,,0.02,,2013-04-15 16:13:00,
2013-04-15 11:24:00,57.0,54.0,29.84,SSW,196,12.0,18.0,91,0.00,,,0.02,,2013-04-15 16:24:00,
2013-04-15 11:33:00,57.0,55.0,29.84,SSW,209,11.0,18.0,92,0.00,,,0.02,,2013-04-15 16:33:00,
2013-04-15 11:44:00,57.0,55.0,29.84,SSW,209,11.0,18.0,92,0.00,,,0.02,,2013-04-15 16:44:00,
2013-04-15 11:53:00,57.0,55.0,29.83,SSW,211,11.0,19.0,92,0.00,,,0.02,,2013-04-15 16:53:00,
2013-04-15 12:03:00,57.0,55.0,29.81,South,170,8.0,12.0,93,0.00,,,0.02,,2013-04-15 17:03:00,
2013-04-15 12:14:00,57.0,55.0,29.81,South,170,8.0,12.0,93,0.00,,,0.02,,2013-04-15 17:14:00,
2013-04-15 12:22:00,57.0,55.0,29.81,SSE,168,8.0,14.0,93,0.00,,,0.02,,2013-04-15 17:22:00,
2013-04-15 12:33:00,58.0,56.0,29.81,South,182,10.0,16.0,93,0.00,,,0.02,,2013-04-15 17:33:00,
2013-04-15 12:43:00,58.0,56.0,29.81,South,182,10.0,16.0,93,0.00,,,0.02,,2013-04-15 17:43:00,
2013-04-15 12:52:00,60.0,57.0,29.82,South,189,10.0,18.0,90,0.00,,,0.02,,2013-04-15 17:52:00,
2013-04-15 13:03:00,60.0,57.0,29.84,SSW,205,8.0,16.0,89,0.00,,,0.02,,2013-04-15 18:03:00,
2013-04-15 13:12:00,60.0,57.0,29.84,SSW,205,8.0,16.0,89,0.00,,,0.02,,2013-04-15 18:12:00,
2013-04-15 13:23:00,60.0,57.0,29.82,SSW,205,9.0,13.0,91,0.00,,,0.02,,2013-04-15 18:23:00,
2013-04-15 13:33:00,61.0,58.0,29.82,SSW,201,7.0,14.0,89,0.00,,,0.02,,2013-04-15 18:33:00,
2013-04-15 13:42:00,61.0,58.0,29.82,SSW,201,7.0,14.0,89,0.00,,,0.02,,2013-04-15 18:42:00,
2013-04-15 13:52:00,61.0,57.0,29.83,SSW,209,9.0,17.0,87,0.00,,,0.02,,2013-04-15 18:52:00,
2013-04-15 14:02:00,61.0,58.0,29.85,SSW,205,10.0,14.0,89,0.00,,,0.02,,2013-04-15 19:02:00,
2013-04-15 14:12:00,61.0,58.0,29.85,SSW,205,10.0,14.0,89,0.00,,,0.02,,2013-04-15 19:12:00,
2013-04-15 14:22:00,59.0,57.0,29.83,SSW,205,9.0,22.0,92,0.00,,,0.02,,2013-04-15 19:22:00,
2013-04-15 14:37:00,60.0,58.0,29.85,SSW,203,9.0,15.0,93,0.01,,,0.03,,2013-04-15 19:37:00,
2013-04-15 14:58:00,60.0,57.0,29.86,South,186,8.0,15.0,90,0.01,,,0.03,,2013-04-15 19:58:00,
2013-04-15 15:02:00,59.0,57.0,29.85,SSW,200,6.0,12.0,92,0.01,,,0.03,,2013-04-15 20:02:00,
2013-04-15 15:11:00,59.0,57.0,29.85,SSW,200,6.0,12.0,92,0.01,,,0.03,,2013-04-15 20:11:00,
2013-04-15 15:22:00,59.0,57.0,29.85,SSW,211,5.0,11.0,93,0.01,,,0.03,,2013-04-15 20:22:00,
2013-04-15 15:32:00,59.0,57.0,29.86,SSW,199,6.0,15.0,92,0.00,,,0.03,,2013-04-15 20:32:00,
2013-04-15 15:42:00,59.0,57.0,29.86,SSW,199,6.0,15.0,92,0.00,,,0.03,,2013-04-15 20:42:00,
2013-04-15 15:52:00,59.0,57.0,29.85,SSW,211,5.0,10.0,94,0.00,,,0.03,,2013-04-15 20:52:00,
2013-04-15 16:02:00,59.0,57.0,29.85,SW,221,3.0,8.0,94,0.00,,,0.03,,2013-04-15 21:02:00,
2013-04-15 16:12:00,59.0,57.0,29.85,SW,221,3.0,8.0,94,0.00,,,0.03,,2013-04-15 21:12:00,
2013-04-15 16:22:00,59.0,57.0,29.85,SSW,213,5.0,7.0,94,0.00,,,0.03,,2013-04-15 21:22:00,
2013-04-15 16:33:00,59.0,57.0,29.85,SW,221,4.0,8.0,93,0.00,,,0.03,,2013-04-15 21:33:00,
2013-04-15 16:43:00,59.0,57.0,29.85,SW,221,4.0,8.0,93,0.00,,,0.03,,2013-04-15 21:43:00,
2013-04-15 16:53:00,59.0,57.0,29.85,West,280,2.0,5.0,93,0.00,,,0.03,,2013-04-15 21:53:00,
2013-04-15 17:02:00,59.0,57.0,29.84,NW,312,3.0,6.0,94,0.00,,,0.03,,2013-04-15 22:02:00,
2013-04-15 17:13:00,59.0,57.0,29.84,NW,312,3.0,6.0,94,0.00,,,0.03,,2013-04-15 22:13:00,
2013-04-15 17:23:00,56.0,54.0,29.85,North,360,5.0,10.0,92,0.00,,,0.03,,2013-04-15 22:23:00,
2013-04-15 17:33:00,56.0,54.0,29.85,NW,326,3.0,8.0,94,0.03,,,0.06,,2013-04-15 22:33:00,
2013-04-15 17:42:00,56.0,54.0,29.85,NW,326,3.0,8.0,94,0.03,,,0.06,,2013-04-15 22:42:00,
2013-04-15 17:52:00,53.0,51.0,29.87,NNW,330,9.0,15.0,93,0.07,,,0.10,,2013-04-15 22:52:00,
2013-04-15 18:02:00,51.0,49.0,29.86,NW,317,6.0,13.0,93,0.12,,,0.15,,2013-04-15 23:02:00,
2013-04-15 18:12:00,51.0,49.0,29.86,NW,317,6.0,13.0,93,0.12,,,0.15,,2013-04-15 23:12:00,
2013-04-15 18:22:00,50.0,49.0,29.86,North,5,5.0,10.0,95,0.12,,,0.16,,2013-04-15 23:22:00,
2013-04-15 18:32:00,50.0,49.0,29.87,NNW,338,5.0,13.0,95,0.11,,,0.17,,2013-04-15 23:32:00,
2013-04-15 18:42:00,50.0,49.0,29.87,NNW,338,5.0,13.0,95,0.11,,,0.17,,2013-04-15 23:42:00,
2013-04-15 18:52:00,50.0,49.0,29.88,WNW,286,2.0,9.0,95,0.06,,,0.17,,2013-04-15 23:52:00,
2013-04-15 19:02:00,50.0,49.0,29.86,NNW,338,2.0,9.0,96,0.03,,,0.18,,2013-04-16 00:02:00,
2013-04-15 19:12:00,50.0,49.0,29.86,NNW,338,2.0,9.0,96,0.03,,,0.18,,2013-04-16 00:12:00,
2013-04-15 19:22:00,50.0,49.0,29.86,NNE,14,4.0,9.0,96,0.02,,,0.18,,2013-04-16 00:22:00,
2013-04-15 19:32:00,50.0,49.0,29.87,NNW,346,4.0,8.0,96,0.01,,,0.18,,2013-04-16 00:32:00,
2013-04-15 19:42:00,50.0,49.0,29.87,NNW,346,4.0,8.0,96,0.01,,,0.18,,2013-04-16 00:42:00,
2013-04-15 19:52:00,50.0,49.0,29.86,NNW,341,3.0,6.0,96,0.01,,,0.18,,2013-04-16 00:52:00,
2013-04-15 20:02:00,50.0,49.0,29.88,North,360,4.0,9.0,96,0.00,,,0.18,,2013-04-16 01:02:00,
2013-04-15 20:12:00,50.0,49.0,29.88,North,360,4.0,9.0,96,0.00,,,0.18,,2013-04-16 01:12:00,
2013-04-15 20:22:00,50.0,49.0,29.89,North,349,6.0,12.0,96,0.00,,,0.18,,2013-04-16 01:22:00,
2013-04-15 20:32:00,50.0,49.0,29.89,NNW,342,7.0,11.0,96,0.01,,,0.19,,2013-04-16 01:32:00,
2013-04-15 20:42:00,50.0,49.0,29.89,NNW,342,7.0,11.0,96,0.01,,,0.19,,2013-04-16 01:42:00,
2013-04-15 20:52:00,50.0,49.0,29.90,North,5,6.0,13.0,96,0.01,,,0.19,,2013-04-16 01:52:00,
2013-04-15 21:02:00,50.0,49.0,29.91,North,355,6.0,10.0,96,0.01,,,0.19,,2013-04-16 02:02:00,
2013-04-15 21:12:00,50.0,49.0,29.91,North,355,6.0,10.0,96,0.01,,,0.19,,2013-04-16 02:12:00,
2013-04-15 21:22:00,50.0,49.0,29.91,NNW,348,8.0,15.0,96,0.02,,,0.20,,2013-04-16 02:22:00,
2013-04-15 21:32:00,47.0,46.0,29.93,North,355,8.0,13.0,95,0.01,,,0.20,,2013-04-16 02:32:00,
2013-04-15 21:42:00,47.0,46.0,29.93,North,355,8.0,13.0,95,0.01,,,0.20,,2013-04-16 02:42:00,
2013-04-15 21:52:00,47.0,46.0,29.93,NW,309,6.0,14.0,95,0.02,,,0.21,,2013-04-16 02:52:00,
2013-04-15 22:02:00,46.0,45.0,29.94,NW,318,8.0,13.0,96,0.03,,,0.22,,2013-04-16 03:02:00,
2013-04-15 22:12:00,46.0,45.0,29.94,NW,318,8.0,13.0,96,0.03,,,0.22,,2013-04-16 03:12:00,
2013-04-15 22:22:00,46.0,45.0,29.94,North,355,6.0,12.0,96,0.02,,,0.22,,2013-04-16 03:22:00,
2013-04-15 22:33:00,46.0,45.0,29.94,NNW,346,7.0,13.0,96,0.03,,,0.23,,2013-04-16 03:33:00,
2013-04-15 22:43:00,46.0,45.0,29.94,NNW,346,7.0,13.0,96,0.03,,,0.23,,2013-04-16 03:43:00,
2013-04-15 22:52:00,46.0,45.0,29.96,NW,326,8.0,13.0,96,0.05,,,0.26,,2013-04-16 03:52:00,
2013-04-15 23:03:00,46.0,45.0,29.98,North,355,8.0,13.0,96,0.04,,,0.26,,2013-04-16 04:03:00,
2013-04-15 23:12:00,46.0,45.0,29.98,North,355,8.0,13.0,96,0.04,,,0.26,,2013-04-16 04:12:00,
2013-04-15 23:23:00,46.0,45.0,29.96,North,350,6.0,12.0,96,0.05,,,0.27,,2013-04-16 04:23:00,
2013-04-15 23:33:00,45.0,44.0,29.95,NNW,342,6.0,12.0,96,0.04,,,0.27,,2013-04-16 04:33:00,
2013-04-15 23:42:00,45.0,44.0,29.95,NNW,342,6.0,12.0,96,0.04,,,0.27,,2013-04-16 04:42:00,
2013-04-15 23:52:00,45.0,43.0,29.93,NNW,335,7.0,13.0,94,0.01,,,0.27,,2013-04-16 04:52:00,